TimeEST,TemperatureF,Dew PointF,Humidity,Sea Level PressureIn,VisibilityMPH,Wind Direction,Wind SpeedMPH,Gust SpeedMPH,PrecipitationIn,Events,Conditions,WindDirDegrees,DateUTC
12:15 AM,60.8,60.8,100,30.08,10.0,South,6.9,-,N/A,,Clear,190,2013-01-30 05:15:00
12:35 AM,60.8,60.8,100,30.08,10.0,South,6.9,-,N/A,,Clear,180,2013-01-30 05:35:00
12:55 AM,-9999,-9999,N/A,30.07,7.0,South,6.9,-,N/A,,Clear,190,2013-01-30 05:55:00
1:35 AM,-9999,-9999,N/A,30.06,7.0,South,8.1,-,N/A,,Clear,180,2013-01-30 06:35:00
1:55 AM,-9999,-9999,N/A,30.05,7.0,South,6.9,-,N/A,,Scattered Clouds,190,2013-01-30 06:55:00
2:15 AM,-9999,-9999,N/A,30.05,7.0,South,8.1,-,N/A,,Mostly Cloudy,190,2013-01-30 07:15:00
2:35 AM,-9999,-9999,N/A,30.05,7.0,South,9.2,-,N/A,,Overcast,190,2013-01-30 07:35:00
2:55 AM,-9999,-9999,N/A,30.03,7.0,South,10.4,-,N/A,,Scattered Clouds,190,2013-01-30 07:55:00
3:15 AM,-9999,-9999,N/A,30.03,10.0,SSW,9.2,-,N/A,,Scattered Clouds,200,2013-01-30 08:15:00
3:35 AM,-9999,-9999,N/A,30.02,10.0,SSW,10.4,16.1,N/A,,Scattered Clouds,200,2013-01-30 08:35:00
3:55 AM,-9999,-9999,N/A,30.01,10.0,South,11.5,-,N/A,,Mostly Cloudy,190,2013-01-30 08:55:00
4:15 AM,-9999,-9999,N/A,30.01,10.0,SSW,10.4,16.1,N/A,,Overcast,200,2013-01-30 09:15:00
4:35 AM,-9999,-9999,N/A,30.00,10.0,South,11.5,17.3,N/A,,Overcast,190,2013-01-30 09:35:00
4:55 AM,-9999,-9999,N/A,30.00,10.0,South,11.5,18.4,N/A,,Overcast,190,2013-01-30 09:55:00
5:15 AM,-9999,-9999,N/A,30.00,10.0,South,8.1,20.7,N/A,,Overcast,190,2013-01-30 10:15:00
5:35 AM,-9999,-9999,N/A,30.00,10.0,SSW,12.7,23.0,N/A,,Overcast,200,2013-01-30 10:35:00
5:55 AM,-9999,-9999,N/A,29.99,10.0,SSW,13.8,20.7,N/A,,Overcast,200,2013-01-30 10:55:00
6:15 AM,-9999,-9999,N/A,29.98,10.0,South,9.2,-,N/A,,Overcast,190,2013-01-30 11:15:00
6:55 AM,-9999,-9999,N/A,29.97,10.0,SSW,12.7,19.6,N/A,,Overcast,200,2013-01-30 11:55:00
7:15 AM,-9999,-9999,N/A,29.97,10.0,South,12.7,21.9,N/A,,Overcast,180,2013-01-30 12:15:00
7:35 AM,-9999,-9999,N/A,29.97,10.0,South,13.8,24.2,N/A,,Overcast,190,2013-01-30 12:35:00
7:55 AM,-9999,-9999,N/A,29.96,10.0,South,18.4,23.0,N/A,,Overcast,190,2013-01-30 12:55:00
8:15 AM,-9999,-9999,N/A,29.96,10.0,South,12.7,21.9,N/A,,Overcast,190,2013-01-30 13:15:00
8:35 AM,-9999,-9999,N/A,29.96,10.0,South,12.7,20.7,N/A,,Overcast,180,2013-01-30 13:35:00
8:55 AM,-9999,-9999,N/A,29.94,10.0,South,16.1,26.5,N/A,,Overcast,190,2013-01-30 13:55:00
9:15 AM,-9999,-9999,N/A,29.93,10.0,South,16.1,23.0,N/A,,Overcast,190,2013-01-30 14:15:00
9:35 AM,-9999,-9999,N/A,29.93,10.0,South,16.1,28.8,N/A,,Overcast,190,2013-01-30 14:35:00
9:55 AM,-9999,-9999,N/A,29.92,10.0,South,17.3,23.0,N/A,,Overcast,190,2013-01-30 14:55:00
10:15 AM,-9999,-9999,N/A,29.92,10.0,South,15.0,28.8,N/A,,Overcast,190,2013-01-30 15:15:00
10:35 AM,-9999,-9999,N/A,29.92,10.0,South,19.6,28.8,N/A,,Overcast,190,2013-01-30 15:35:00
10:55 AM,-9999,-9999,N/A,29.91,10.0,South,18.4,25.3,N/A,,Overcast,190,2013-01-30 15:55:00
11:15 AM,-9999,-9999,N/A,29.90,10.0,South,16.1,23.0,N/A,,Overcast,190,2013-01-30 16:15:00
11:35 AM,-9999,-9999,N/A,29.90,10.0,South,18.4,27.6,N/A,,Overcast,190,2013-01-30 16:35:00
11:55 AM,69.8,69.8,100,29.88,10.0,South,13.8,28.8,N/A,,Overcast,190,2013-01-30 16:55:00
12:15 PM,69.8,69.8,100,29.86,10.0,South,13.8,25.3,N/A,,Overcast,180,2013-01-30 17:15:00
12:35 PM,69.8,69.8,100,29.84,10.0,South,17.3,28.8,N/A,,Overcast,180,2013-01-30 17:35:00
12:55 PM,69.8,69.8,100,29.82,10.0,South,13.8,28.8,N/A,,Overcast,180,2013-01-30 17:55:00
1:15 PM,-9999,-9999,N/A,29.81,7.0,South,13.8,24.2,N/A,,Overcast,180,2013-01-30 18:15:00
1:35 PM,-9999,-9999,N/A,29.80,10.0,South,18.4,25.3,N/A,,Overcast,180,2013-01-30 18:35:00
1:55 PM,-9999,-9999,N/A,29.79,7.0,South,15.0,23.0,N/A,,Overcast,170,2013-01-30 18:55:00
2:15 PM,-9999,-9999,N/A,29.78,10.0,South,17.3,24.2,N/A,,Overcast,180,2013-01-30 19:15:00
2:35 PM,-9999,-9999,N/A,29.77,10.0,South,13.8,27.6,N/A,,Overcast,180,2013-01-30 19:35:00
2:55 PM,-9999,-9999,N/A,29.75,10.0,South,16.1,21.9,N/A,,Overcast,170,2013-01-30 19:55:00
3:15 PM,69.8,69.8,100,29.72,10.0,South,17.3,25.3,N/A,,Overcast,170,2013-01-30 20:15:00
3:35 PM,71.6,62.6,73,29.72,10.0,South,18.4,28.8,N/A,,Overcast,180,2013-01-30 20:35:00
3:55 PM,71.6,62.6,73,29.71,10.0,South,19.6,31.1,N/A,,Overcast,180,2013-01-30 20:55:00
4:15 PM,71.6,60.8,69,29.70,10.0,South,21.9,34.5,N/A,,Overcast,180,2013-01-30 21:15:00
4:35 PM,71.6,60.8,69,29.69,10.0,South,18.4,36.8,N/A,,Overcast,180,2013-01-30 21:35:00
4:55 PM,71.6,60.8,69,29.69,10.0,South,25.3,36.8,N/A,,Overcast,180,2013-01-30 21:55:00
5:15 PM,69.8,60.8,73,29.69,10.0,South,15.0,27.6,N/A,,Overcast,180,2013-01-30 22:15:00
5:35 PM,69.8,62.6,78,29.68,10.0,South,17.3,25.3,N/A,,Overcast,190,2013-01-30 22:35:00
5:55 PM,69.8,62.6,78,29.67,10.0,South,19.6,27.6,N/A,,Overcast,180,2013-01-30 22:55:00
6:15 PM,69.8,60.8,73,29.65,10.0,South,18.4,29.9,N/A,,Overcast,170,2013-01-30 23:15:00
6:35 PM,69.8,60.8,73,29.64,10.0,South,25.3,31.1,N/A,,Overcast,180,2013-01-30 23:35:00
6:55 PM,69.8,60.8,73,29.62,10.0,South,20.7,36.8,N/A,,Overcast,170,2013-01-30 23:55:00
7:15 PM,69.8,60.8,73,29.61,10.0,South,20.7,33.4,N/A,,Mostly Cloudy,180,2013-01-31 00:15:00
7:35 PM,69.8,60.8,73,29.60,10.0,South,27.6,38.0,N/A,,Overcast,180,2013-01-31 00:35:00
7:55 PM,69.8,60.8,73,29.58,10.0,South,18.4,35.7,N/A,,Mostly Cloudy,180,2013-01-31 00:55:00
8:15 PM,69.8,60.8,73,29.57,10.0,South,25.3,34.5,N/A,,Overcast,180,2013-01-31 01:15:00
8:35 PM,69.8,60.8,73,29.55,10.0,South,23.0,36.8,N/A,,Overcast,170,2013-01-31 01:35:00
8:55 PM,69.8,60.8,73,29.54,10.0,South,27.6,39.1,N/A,,Overcast,170,2013-01-31 01:55:00
9:15 PM,69.8,62.6,78,29.54,10.0,South,21.9,44.9,N/A,,Overcast,180,2013-01-31 02:15:00
9:35 PM,69.8,62.6,78,29.52,10.0,South,24.2,35.7,N/A,,Overcast,170,2013-01-31 02:35:00
9:55 PM,69.8,62.6,78,29.51,10.0,South,20.7,36.8,N/A,,Overcast,180,2013-01-31 02:55:00
10:15 PM,69.8,62.6,78,29.50,10.0,South,23.0,32.2,N/A,,Overcast,180,2013-01-31 03:15:00
10:35 PM,69.8,62.6,78,29.48,10.0,South,24.2,35.7,N/A,,Overcast,190,2013-01-31 03:35:00
10:55 PM,69.8,64.4,83,29.46,10.0,South,20.7,35.7,N/A,Rain,Light Rain,190,2013-01-31 03:55:00
11:15 PM,68.0,68.0,100,29.45,7.0,South,16.1,35.7,N/A,Rain,Light Rain,180,2013-01-31 04:15:00
11:35 PM,-9999,-9999,N/A,29.43,7.0,South,19.6,33.4,0.01,,Light Drizzle,180,2013-01-31 04:35:00
11:55 PM,-9999,-9999,N/A,29.40,7.0,South,21.9,34.5,0.01,,Light Drizzle,170,2013-01-31 04:55:00